Mitchell, SD

8:52 AM CDT on October 17, 2019 (GMT -0500)
Mitchell Municipal

Weather History for KMHE - August, 2019

Change the Weather History Date:

Sunday, August 4, 2019

  Actual Average Record
Temperature  
Mean Temperature 77 °F 74 °F  
Max Temperature 87 °F 85 °F 115 °F (1934)
Min Temperature 66 °F 62 °F 40 °F (1974)
Degree Days  
Heating Degree Days 0 0  
Month to date heating degree days 0 0  
Since 1 June heating degree days 16 40  
Since 1 July heating degree days 0 5  
Cooling Degree Days 12 9  
Month to date cooling degree days 34 36  
Year to date cooling degree days 614 554  
Since 1 June cooling degree days 595 514  
Growing Degree Days 26 (Base 50)    
Moisture  
Dew Point 68 °F    
Average Humidity 77    
Maximum Humidity 97    
Minimum Humidity 57    
Precipitation  
Precipitation 0.00 in 0.06 in 1.12 in (1988)
Month to date precipitation 1.24 0.25  
Year to date precipitation 22.16 14.22  
Snow  
Snow 0.00 in - 0.00 in ()
Month to date snowfall 0.0  
Since 1 June snowfall 0.0  
Since 1 July snowfall 0.0  
Snow Depth 0.00 in    
Sea Level Pressure  
Sea Level Pressure 30.00 in    
Wind  
Wind Speed 5 mph (SE)    
Max Wind Speed 13 mph    
Max Gust Speed 16 mph    
Visibility 6 miles    
Events      
T = Trace of Precipitation, MM = Missing Value Source: NWS Daily Summary

Daily Weather History Graph

Daily Weather History Graph

Search for Another Location

Airport or City:

Astronomy

Aug. 04, 2019 Rise Set
Actual Time 6:24 AM CDT 8:51 PM CDT
Civil Twilight 5:51 AM CDT 9:24 PM CDT
Nautical Twilight 5:11 AM CDT 10:04 PM CDT
Astronomical Twilight 4:25 AM CDT 10:49 PM CDT
Moon 10:38 AM CDT (8/4) 11:23 PM CDT (8/4)
Length of Visible Light 15h 32m
Length of Day
14h 27m
Waxing Crescent, 18% of the Moon is Illuminated
Aug 4
Waxing Crescent
Aug 7
First Quarter
Aug 15
Full
Aug 23
Last Quarter
Aug 30
New

Hourly Weather History & Observations

Time (CDT) Temp. Heat Index Dew Point Humidity Pressure Visibility Wind Dir Wind Speed Gust Speed Precip Events Conditions
12:53 AM 71.1 °F - 66.9 °F 87% 30.03 in 10.0 mi SSE 5.8 mph - N/A   Scattered Clouds
1:53 AM 71.1 °F - 66.9 °F 87% 30.03 in 10.0 mi South 5.8 mph - N/A   Clear
2:53 AM 69.1 °F - 66.0 °F 90% 30.02 in 6.0 mi ESE 4.6 mph - N/A   Clear
3:53 AM 68.0 °F - 66.0 °F 93% 30.02 in 4.0 mi SE 4.6 mph - N/A   Clear
4:53 AM 66.9 °F - 64.9 °F 93% 30.01 in 4.0 mi South 4.6 mph - N/A   Clear
5:53 AM 66.9 °F - 64.9 °F 93% 30.01 in 3.0 mi SE 4.6 mph - N/A   Clear
6:21 AM 66.0 °F - 64.0 °F 93% 30.03 in 2.5 mi ESE 4.6 mph - N/A   Clear
6:34 AM 66.0 °F - 64.0 °F 93% 30.03 in 1.8 mi ESE 5.8 mph - N/A   Clear
6:41 AM 66.0 °F - 64.0 °F 93% 30.03 in 2.0 mi SE 4.6 mph - N/A   Partly Cloudy
6:53 AM 66.0 °F - 64.0 °F 93% 30.02 in 1.8 mi ESE 5.8 mph - N/A   Scattered Clouds
6:59 AM 66.0 °F - 64.0 °F 93% 30.03 in 2.0 mi SE 5.8 mph - N/A   Mostly Cloudy
7:40 AM 68.0 °F - 66.0 °F 93% 30.03 in 3.0 mi SE 5.8 mph - N/A   Overcast
7:53 AM 69.1 °F - 66.0 °F 90% 30.01 in 3.0 mi SE 4.6 mph - N/A   Overcast
8:06 AM 69.1 °F - 66.9 °F 93% 30.03 in 3.0 mi SSE 6.9 mph - N/A   Overcast
8:30 AM 70.0 °F - 66.9 °F 90% 30.03 in 2.5 mi SSE 5.8 mph - N/A   Overcast
8:53 AM 70.0 °F - 68.0 °F 93% 30.01 in 1.5 mi SSE 5.8 mph - N/A   Overcast
9:31 AM 71.1 °F - 69.1 °F 93% 30.03 in 2.5 mi SSE 6.9 mph - N/A   Overcast
9:51 AM 71.6 °F - 68.0 °F 88% 30.03 in 1.8 mi South 4.6 mph - N/A   Overcast
9:53 AM 71.1 °F - 68.0 °F 90% 30.01 in 1.8 mi SSE 5.8 mph - N/A   Overcast
10:11 AM 71.1 °F - 69.1 °F 93% 30.03 in 2.0 mi South 3.5 mph - N/A   Overcast
10:27 AM 72.0 °F - 69.1 °F 91% 30.03 in 3.0 mi South 5.8 mph - N/A   Overcast
10:53 AM 73.0 °F - 69.1 °F 87% 30.01 in 5.0 mi South 5.8 mph - N/A   Overcast
11:19 AM 73.9 °F - 69.1 °F 85% 30.02 in 6.0 mi South 5.8 mph - N/A   Haze
11:53 AM 73.9 °F - 69.1 °F 85% 30.01 in 6.0 mi Calm Calm - N/A   Haze
12:53 PM 78.1 °F - 71.1 °F 79% 29.99 in 10.0 mi ESE 6.9 mph - N/A   Overcast
1:00 PM 78.1 °F - 71.1 °F 79% 30.01 in 10.0 mi North - - N/A   Overcast
1:28 PM 80.1 °F 83.6 °F 71.1 °F 74% 30.01 in 10.0 mi East 5.8 mph - N/A   Scattered Clouds
1:53 PM 82.0 °F 86.7 °F 72.0 °F 71% 29.98 in 10.0 mi ESE 4.6 mph - N/A   Scattered Clouds
2:53 PM 84.9 °F 91.4 °F 73.0 °F 67% 29.98 in 10.0 mi Variable 5.8 mph - N/A   Clear
3:53 PM 86.0 °F 93.0 °F 73.0 °F 65% 29.98 in 10.0 mi NNE 6.9 mph - N/A   Clear
4:53 PM 86.0 °F 90.7 °F 70.0 °F 59% 29.97 in 10.0 mi NE 11.5 mph - N/A   Clear
5:53 PM 86.0 °F 91.5 °F 71.1 °F 61% 29.94 in 10.0 mi East 5.8 mph - N/A   Clear
6:53 PM 82.9 °F 87.5 °F 71.1 °F 67% 29.94 in 10.0 mi ENE 5.8 mph - N/A   Clear
7:53 PM 82.0 °F 85.9 °F 70.0 °F 67% 29.94 in 10.0 mi Calm Calm - N/A   Clear
8:53 PM 78.1 °F - 72.0 °F 81% 29.92 in 10.0 mi ESE 3.5 mph - N/A   Clear
9:53 PM 77.0 °F - 71.1 °F 82% 29.93 in 10.0 mi SE 3.5 mph - N/A   Clear
10:53 PM 75.0 °F - 71.1 °F 87% 29.93 in 10.0 mi ENE 3.5 mph - N/A   Clear
11:53 PM 73.9 °F - 71.1 °F 91% 29.93 in 10.0 mi Calm Calm - N/A   Clear